Theta_e
339 339 339 339 339 339 339 338 338 338 337 337 336 337 337 337 337 337 337 338 339 338 338 340 340 341 345 348 349 348 349 350 350 349 347 336 322 321 326 329 331 334
340 339 340 339 339 339 339 338 338 338 338 338 337 336 337 337 337 337 337 337 338 338 338 340 341 341 342 346 349 349 348 348 348 348 347 338 323 319 323 325 327 327
342 342 341 341 340 339 338 338 338 338 338 338 338 337 337 337 336 336 337 337 338 338 338 340 344 344 341 343 347 348 348 346 345 347 347 340 327 320 319 322 325 324
345 345 344 344 343 342 341 340 339 338 338 338 338 338 338 337 337 336 336 337 337 337 338 339 342 344 341 342 345 346 347 346 344 347 347 342 332 324 319 320 323 324
346 346 346 346 346 345 344 342 339 338 338 337 337 338 338 337 337 336 336 336 336 336 337 336 338 340 341 342 344 344 346 346 344 346 347 342 335 327 321 318 319 321
346 346 346 346 346 346 346 344 340 339 339 338 338 337 337 337 336 336 336 336 336 335 336 335 336 337 339 342 343 343 344 345 345 346 345 343 339 332 325 320 318 319
345 345 345 346 346 346 346 345 343 342 342 341 340 338 337 336 336 336 336 335 335 336 335 335 335 336 337 340 341 343 343 343 345 345 344 344 342 337 332 327 320 318
343 344 344 345 345 346 346 345 344 344 343 343 342 340 337 336 336 336 336 336 336 336 336 336 336 335 337 338 340 342 343 342 343 343 342 344 343 340 338 336 329 321
341 342 343 343 344 345 344 344 345 344 344 344 344 343 340 337 336 336 335 336 336 336 336 336 336 337 336 337 338 340 342 342 342 341 341 342 342 340 339 340 337 330
339 340 341 342 343 343 344 344 344 344 344 344 344 344 344 341 338 337 336 336 336 336 336 336 336 337 337 337 338 339 340 341 341 341 341 341 341 340 340 341 341 338
340 339 339 340 341 342 343 343 344 344 344 344 344 345 345 344 341 340 339 337 336 335 335 335 335 336 337 337 338 338 339 340 341 341 341 341 341 341 341 342 341 341
341 341 340 340 341 341 341 342 343 344 344 344 344 344 345 345 344 342 342 340 337 335 335 334 335 335 335 336 337 338 339 339 339 340 340 342 342 341 341 342 342 341
341 341 341 341 341 341 341 342 342 343 343 343 343 343 344 345 345 344 343 342 340 337 335 335 335 335 335 335 335 337 338 339 340 339 340 340 342 342 341 341 342 342
341 341 341 341 341 341 341 342 342 343 343 343 343 344 344 344 345 344 344 344 342 340 337 336 336 336 336 335 335 335 336 337 339 340 340 340 340 341 342 341 342 342
342 341 341 341 342 342 341 342 342 342 343 343 343 344 343 344 344 345 345 344 344 342 340 339 338 338 336 335 335 334 334 334 336 338 339 340 340 340 341 342 342 342
342 342 342 342 342 342 342 342 342 342 342 343 343 343 343 344 343 344 345 345 345 345 344 343 342 339 336 335 334 334 334 333 334 335 337 338 339 339 340 342 342 342
343 342 343 343 342 342 342 342 342 342 342 343 344 344 343 344 344 344 345 345 345 345 345 345 344 342 339 337 336 335 335 334 333 333 334 335 337 337 338 339 341 342
342 343 343 342 342 342 342 342 343 342 343 343 344 344 343 344 344 344 344 345 345 345 345 345 345 345 344 342 340 338 337 337 336 334 334 334 335 336 336 337 340 340
343 343 343 343 343 343 343 343 343 343 344 344 344 343 344 344 344 345 345 345 345 346 346 346 346 346 346 346 345 343 342 341 340 338 335 334 334 335 336 336 338 339
343 343 342 343 343 343 344 344 343 343 344 344 345 345 344 344 344 345 345 345 345 346 346 346 346 346 346 347 347 347 346 346 345 343 339 335 334 334 335 336 336 338
342 342 342 343 343 343 344 344 344 344 344 344 346 346 345 345 345 345 345 345 345 346 346 346 346 346 347 347 347 348 348 348 348 347 344 339 336 335 335 335 335 336
342 342 342 343 343 343 344 344 343 344 344 344 345 346 346 346 345 345 345 346 345 346 346 346 346 346 346 347 347 347 348 349 349 349 348 344 339 338 337 336 336 337
342 342 342 343 343 344 344 344 344 344 344 345 345 346 347 346 346 347 346 346 346 346 346 346 346 347 346 347 347 347 348 349 348 349 349 346 343 342 340 338 338 339
342 342 343 343 343 344 343 343 344 344 344 345 345 346 346 346 348 349 348 348 347 347 348 348 349 349 347 346 348 348 348 349 348 349 348 346 344 344 342 341 340 341
342 342 343 343 343 344 344 345 345 345 346 347 346 346 347 348 350 352 352 351 351 352 352 351 351 353 351 347 347 348 348 349 349 350 349 348 346 345 345 346 345 343
343 342 343 343 343 344 344 345 345 346 346 347 347 349 350 351 352 353 354 354 353 354 354 350 352 356 355 349 350 351 349 349 351 352 351 351 350 349 349 350 348 347
Wind_Speed
39 38 38 37 36 35 34 33 31 31 30 30 30 29 28 27 26 26 26 25 24 24 23 22 21 18 15 15 15 14 12 11 10 9 9 9 9 10 11 11 11 11
40 39 38 38 37 36 34 33 33 32 31 30 30 30 29 29 28 27 26 26 25 24 23 22 21 20 18 17 16 15 14 13 12 10 10 10 10 11 12 12 11 12
40 39 39 38 37 36 35 34 33 32 31 30 30 31 31 30 30 28 27 26 25 24 24 22 21 20 19 19 18 17 16 16 14 12 11 11 12 12 13 13 13 13
40 39 38 38 37 36 35 34 34 33 32 31 31 31 31 31 31 30 28 27 26 25 24 23 21 20 20 20 20 19 18 17 17 14 12 13 14 14 13 14 15 14
41 40 39 38 37 36 35 35 34 34 33 32 32 32 32 32 32 32 31 29 28 26 25 25 23 22 21 22 22 21 20 19 18 17 16 15 16 15 15 16 16 15
42 41 40 39 38 37 37 36 35 34 33 32 32 33 33 33 33 33 32 31 29 28 27 27 26 24 23 23 23 22 22 21 20 19 18 17 17 16 17 18 18 17
44 43 41 40 39 39 38 37 36 35 34 32 32 33 33 34 34 34 33 32 31 30 29 29 28 27 25 25 25 24 23 22 21 22 21 20 19 19 18 19 19 19
45 44 42 41 41 41 40 39 38 36 34 33 33 33 34 34 34 34 34 33 32 31 30 30 30 29 27 27 27 25 24 24 23 24 24 22 21 21 20 20 20 19
46 45 44 43 42 42 41 40 39 37 36 35 35 34 34 35 35 35 34 34 34 33 32 31 31 30 29 29 29 27 26 25 25 25 26 25 24 23 22 21 21 20
47 46 45 44 44 44 43 42 41 39 38 37 36 36 36 36 35 35 36 36 35 35 34 33 32 32 31 31 31 29 28 27 27 26 27 26 26 25 24 23 23 21
46 47 46 46 46 45 44 43 42 42 41 39 38 38 38 38 36 36 37 38 38 37 36 35 34 34 33 32 32 31 30 29 29 28 28 28 27 27 26 26 25 23
45 45 45 45 45 45 45 44 43 44 44 42 40 39 39 40 39 38 38 39 39 39 38 37 37 36 35 34 33 33 33 32 31 30 29 29 29 28 28 28 27 25
45 44 43 43 43 44 44 44 43 44 44 43 41 40 40 40 41 40 39 39 39 40 39 39 39 38 38 37 36 35 35 34 33 32 31 30 30 29 30 30 29 27
46 44 43 43 43 42 42 43 43 43 43 43 42 41 40 40 41 41 40 40 39 39 40 40 40 40 40 40 38 38 38 37 35 34 32 31 31 31 31 31 31 30
47 46 46 45 45 44 44 43 43 43 43 43 43 42 41 40 40 41 41 41 39 39 39 40 41 42 43 42 41 40 40 39 38 37 35 33 32 32 32 33 33 32
46 46 47 47 47 47 46 44 44 44 44 45 44 44 43 42 41 41 43 43 41 40 39 40 42 44 44 44 43 42 41 41 40 39 38 36 35 34 34 34 34 34
45 46 47 48 48 48 48 47 46 46 47 47 46 45 44 43 43 43 43 44 44 42 41 41 42 44 44 45 44 43 42 41 41 41 40 39 38 37 36 35 35 36
44 45 46 46 47 48 48 47 46 47 48 48 48 47 45 44 44 44 44 45 46 45 44 44 44 43 44 44 43 43 42 42 41 42 41 41 40 40 38 37 36 37
42 44 45 45 46 46 46 46 46 47 48 49 48 47 46 46 46 45 45 45 47 48 47 46 45 45 44 44 43 42 41 41 41 42 42 43 43 42 41 39 38 38
42 43 43 43 44 45 45 45 46 46 47 48 48 48 48 48 48 47 46 46 47 48 48 47 47 47 46 44 43 42 41 39 39 41 43 44 45 44 43 42 39 38
42 42 42 42 43 44 45 45 45 45 46 47 48 49 49 48 48 47 47 47 47 48 48 48 48 48 47 45 44 42 41 39 39 40 42 44 46 46 46 44 41 40
41 41 42 42 43 44 44 44 44 45 45 46 47 48 48 48 48 48 47 47 47 47 48 49 48 48 47 46 45 43 41 41 40 40 41 44 46 46 46 45 43 41
41 42 42 42 43 44 44 43 43 44 45 45 46 47 48 49 48 48 48 47 47 48 48 49 49 49 48 47 45 44 43 43 43 41 42 44 45 45 45 46 45 41
41 42 42 43 43 43 43 42 42 44 44 44 45 46 47 47 47 47 47 47 48 48 48 48 47 48 49 49 47 45 44 44 43 42 43 45 45 46 46 46 45 42
38 39 40 41 42 42 42 42 43 44 44 44 45 45 45 46 45 45 45 46 45 43 43 45 44 43 46 49 49 48 47 45 43 43 43 44 46 47 43 39 39 40
36 37 37 38 40 41 41 42 42 43 42 43 43 43 43 43 43 43 44 44 43 40 40 43 40 35 39 47 49 48 49 46 43 43 43 43 43 43 36 30 31 34
Wind_Direction
225 226 227 228 229 230 231 231 231 229 228 228 229 231 231 231 232 233 237 239 240 241 242 243 244 241 234 231 231 233 236 232 224 222 224 230 229 216 212 210 208 211
226 226 228 229 230 230 231 232 232 232 230 228 229 231 232 233 233 233 236 239 241 242 242 242 243 242 239 236 235 235 237 237 233 224 219 229 232 223 219 216 214 218
225 226 227 228 228 230 230 232 233 233 232 231 229 230 232 233 234 233 233 236 239 240 241 240 238 239 239 238 237 237 238 240 239 231 223 231 236 229 225 222 219 223
224 225 226 227 228 229 230 231 233 233 232 232 230 229 230 233 234 234 232 233 235 236 238 239 237 237 240 239 237 237 238 239 238 233 228 233 237 233 229 228 226 227
225 225 226 228 229 230 231 231 231 232 232 231 230 229 229 230 232 233 232 231 233 234 236 239 239 238 239 240 239 238 238 237 236 234 232 235 238 235 232 233 231 230
226 226 227 228 229 230 230 230 230 231 232 231 231 230 229 229 230 231 231 231 232 233 235 237 239 238 238 240 241 240 238 236 235 234 234 236 239 237 235 237 236 234
227 227 227 228 230 230 231 230 230 231 231 231 231 231 230 230 230 230 230 231 231 233 234 236 238 238 237 238 239 239 238 237 235 236 237 236 238 239 237 239 239 237
227 227 227 228 229 231 231 231 231 231 231 232 232 232 230 230 230 230 230 230 231 232 233 234 236 237 237 238 238 237 237 237 236 238 238 235 236 238 239 240 242 241
228 227 227 227 229 231 231 232 233 232 232 232 232 233 233 231 231 231 231 231 231 232 232 233 235 236 237 238 238 237 236 237 236 238 240 238 237 240 241 242 243 243
228 228 228 227 228 230 231 232 234 235 234 233 233 234 235 234 232 232 233 232 232 232 233 234 235 236 236 238 239 238 237 237 237 238 241 241 241 243 243 244 245 245
227 228 228 228 228 229 231 232 234 236 237 236 235 235 236 237 235 233 234 235 234 234 234 235 236 236 237 237 239 240 239 238 238 239 240 242 243 243 244 245 245 245
228 228 228 228 229 230 231 232 233 236 238 238 237 235 236 238 238 236 236 236 235 235 235 236 237 238 238 238 239 241 241 240 240 240 241 242 242 243 243 245 245 245
229 228 228 228 228 229 230 231 232 234 236 238 238 237 236 237 238 238 238 237 237 237 237 237 238 239 240 240 239 241 242 242 241 241 241 241 242 242 243 245 246 246
229 229 229 229 229 230 230 231 232 233 234 236 237 237 236 236 237 239 239 239 238 238 238 239 239 241 241 241 240 240 242 242 242 242 241 241 241 241 242 244 247 248
231 230 230 230 231 231 231 231 232 233 234 235 236 236 237 236 236 238 240 241 239 238 239 239 240 241 241 241 241 240 241 242 242 242 242 241 242 241 241 243 246 248
233 232 232 232 232 233 233 232 233 234 235 236 237 237 237 237 237 238 240 242 242 240 238 239 240 241 241 241 242 241 242 242 243 243 243 243 243 242 241 242 244 246
236 235 234 234 234 234 234 234 234 236 237 238 239 239 239 239 239 239 240 242 243 242 240 240 240 242 242 243 242 242 243 243 244 244 244 244 245 244 242 242 243 245
237 236 236 236 236 236 236 236 237 238 239 239 240 241 241 242 241 241 241 242 244 244 243 242 242 242 243 244 244 243 243 244 244 245 245 244 245 245 244 242 242 243
236 237 237 238 238 238 238 238 238 239 240 241 242 243 243 243 243 242 242 242 243 244 245 244 244 244 243 244 245 244 243 243 244 245 245 244 244 245 245 243 240 241
237 237 238 238 240 240 240 240 240 240 241 242 242 243 244 244 244 244 244 243 243 244 245 245 246 246 245 244 245 245 245 244 244 245 245 245 245 245 245 244 241 239
237 238 238 238 239 240 240 241 241 242 242 242 242 243 245 246 246 246 246 246 245 246 246 246 246 246 247 246 246 246 246 245 244 245 245 245 245 245 245 245 243 239
237 238 238 238 238 239 240 241 242 243 243 242 242 243 245 247 248 248 248 248 248 248 248 248 247 247 248 248 247 247 247 247 246 243 243 243 244 244 245 244 243 240
237 237 238 237 237 238 240 241 242 243 244 244 243 243 243 246 248 249 249 250 250 250 250 251 250 250 250 250 249 248 247 247 246 242 241 242 242 242 244 244 243 239
237 238 238 238 239 240 242 243 244 245 245 245 245 245 245 246 247 249 251 252 253 252 252 252 253 253 253 252 251 250 248 248 247 244 242 241 241 241 242 243 242 239
240 241 241 242 243 244 245 245 246 246 247 247 249 249 249 248 246 246 249 252 253 252 251 252 253 253 253 254 253 251 249 248 247 244 243 242 241 239 239 238 238 238
241 242 242 244 245 246 247 248 248 249 249 250 251 250 249 248 246 246 247 250 251 251 252 254 253 248 248 252 252 250 249 248 244 241 241 242 239 237 235 233 232 234